La Porte, IN

11:05 AM CST on February 10, 2016 (GMT -0600)
La Porte Municipal

Weather History for KPPO - March, 2013

Change the Weather History Date:

Saturday, March 16, 2013

  Actual Average (KVPZ) Record (KVPZ)
Temperature  
Mean Temperature 32 °F 38 °F  
Max Temperature 36 °F 47 °F 81 °F (2012)
Min Temperature 28 °F 29 °F 11 °F (1970)
Degree Days  
Heating Degree Days 33 27  
Month to date heating degree days 480  
Since 1 July heating degree days 5212  
Cooling Degree Days 0 0  
Month to date cooling degree days 0  
Year to date cooling degree days 0  
Moisture  
Dew Point 30 °F    
Average Humidity 89    
Maximum Humidity 100    
Minimum Humidity 69    
Precipitation  
Precipitation 0.03 in 0.07 in 1.17 in (1943)
Month to date precipitation 1.19  
Year to date precipitation 4.36  
Sea Level Pressure  
Sea Level Pressure 29.88 in    
Wind  
Wind Speed 9 mph (North)    
Max Wind Speed 18 mph    
Max Gust Speed 29 mph    
Visibility 6 miles    
Events      
T = Trace of Precipitation, MM = Missing Value Source: NWS Daily Summary

Daily Weather History Graph

Daily Weather History Graph

Search for Another Location

Airport or City:

Trip Planner

Search our weather history database for the weather conditions in past years. The results will help you decide how hot, cold, wet, or windy it might be!

Date:

Astronomy

Mar. 16, 2013 Rise Set
Actual Time 6:56 AM CDT 6:54 PM CDT
Civil Twilight 6:28 AM CDT 7:22 PM CDT
Nautical Twilight 5:56 AM CDT 7:54 PM CDT
Astronomical Twilight 5:24 AM CDT 8:27 PM CDT
Moon 9:22 AM CDT (3/16) No Moon Set
Length of Visible Light 12h 53m
Length of Day
11h 58m
Waxing Crescent, 23% of the Moon is Illuminated
Mar 16
Waxing Crescent
Mar 19
First Quarter
Mar 27
Full
Apr 2
Last Quarter
Apr 10
New

Hourly Weather History & Observations

Time (CDT) Temp. Windchill Dew Point Humidity Pressure Visibility Wind Dir Wind Speed Gust Speed Precip Events Conditions
12:15 AM 36.0 °F 29.6 °F 36.0 °F 100% 29.72 in 1.5 mi ENE 8.1 mph - N/A   Overcast
12:35 AM 36.1 °F 29.9 °F 36.1 °F 100% 29.71 in 1.2 mi NE 8.1 mph - N/A   Overcast
12:55 AM 36.1 °F 29.9 °F 36.1 °F 100% 29.70 in 1.2 mi ENE 8.1 mph - N/A   Overcast
1:15 AM 36.5 °F 30.3 °F 36.5 °F 100% 29.71 in 1.2 mi ENE 8.1 mph - N/A   Overcast
1:35 AM 36.5 °F 31.0 °F 36.5 °F 100% 29.70 in 1.5 mi ENE 6.9 mph - N/A   Overcast
1:55 AM 36.5 °F 31.0 °F 36.5 °F 100% 29.71 in 1.5 mi NE 6.9 mph - N/A   Overcast
2:15 AM 36.5 °F 31.0 °F 36.5 °F 100% 29.71 in 1.5 mi NNE 6.9 mph - N/A   Overcast
2:35 AM 36.5 °F 29.7 °F 36.5 °F 100% 29.71 in 1.5 mi NNE 9.2 mph - N/A   Overcast
2:55 AM 36.5 °F 31.8 °F 36.5 °F 100% 29.70 in 1.5 mi NE 5.8 mph - N/A   Overcast
3:15 AM 36.5 °F 30.3 °F 36.5 °F 100% 29.67 in 1.5 mi ENE 8.1 mph - N/A   Overcast
3:35 AM 36.5 °F 29.7 °F 36.5 °F 100% 29.67 in 1.2 mi ENE 9.2 mph - N/A   Overcast
3:55 AM 36.5 °F 31.0 °F 36.5 °F 100% 29.66 in 1.5 mi NE 6.9 mph - N/A   Overcast
4:15 AM 36.5 °F 30.3 °F 36.5 °F 100% 29.69 in 1.5 mi North 8.1 mph - N/A   Overcast
4:35 AM 36.5 °F 31.8 °F 36.5 °F 100% 29.69 in 1.8 mi NNE 5.8 mph - N/A   Overcast
4:55 AM 36.5 °F 32.7 °F 36.5 °F 100% 29.69 in 1.8 mi NE 4.6 mph - N/A   Overcast
5:35 AM 36.1 °F 31.4 °F 36.1 °F 100% 29.68 in 1.8 mi NNE 5.8 mph - N/A   Overcast
5:55 AM 36.0 °F 29.0 °F 36.0 °F 100% 29.69 in 1.8 mi NNE 9.2 mph - N/A   Overcast
6:15 AM 35.8 °F 30.9 °F 35.8 °F 100% 29.70 in 1.8 mi NNE 5.8 mph - N/A   Overcast
6:35 AM 35.8 °F 29.4 °F 35.8 °F 100% 29.71 in 2.0 mi NNE 8.1 mph - N/A   Overcast
6:55 AM 35.8 °F 30.1 °F 35.8 °F 100% 29.71 in 2.0 mi NNE 6.9 mph - N/A   Overcast
7:15 AM 35.6 °F 29.9 °F 35.6 °F 100% 29.72 in 2.0 mi NE 6.9 mph - N/A   Overcast
7:35 AM 35.6 °F 30.7 °F 35.6 °F 100% 29.72 in 2.5 mi NE 5.8 mph - N/A   Overcast
7:55 AM 35.2 °F 31.2 °F 35.2 °F 100% 29.74 in 3.0 mi NE 4.6 mph - N/A   Overcast
8:15 AM 35.1 °F 30.1 °F 35.1 °F 100% 29.75 in 4.0 mi NE 5.8 mph - N/A   Overcast
8:35 AM 35.6 °F 29.9 °F 35.6 °F 100% 29.75 in 4.0 mi NNE 6.9 mph - N/A   Overcast
8:55 AM 35.6 °F 27.5 °F 35.4 °F 99% 29.77 in 2.5 mi NNW 11.5 mph - N/A   Overcast
9:15 AM 34.9 °F 26.2 °F 34.7 °F 99% 29.78 in 4.0 mi North 12.7 mph - N/A   Overcast
9:35 AM 33.8 °F 25.8 °F 33.4 °F 99% 29.79 in 4.0 mi North 10.4 mph - N/A   Overcast
9:55 AM 33.3 °F 23.7 °F 33.1 °F 99% 29.80 in 5.0 mi North 13.8 mph - N/A   Overcast
10:15 AM 32.9 °F 23.2 °F 32.5 °F 99% 29.82 in 5.0 mi North 13.8 mph 18.4 mph N/A   Overcast
10:35 AM 32.2 °F 21.1 °F 32.0 °F 99% 29.83 in 5.0 mi North 17.3 mph - N/A   Overcast
10:55 AM 32.2 °F 22.3 °F 32.0 °F 99% 29.84 in 5.0 mi NNW 13.8 mph - N/A   Overcast
11:15 AM 32.4 °F 21.7 °F 32.0 °F 99% 29.86 in 5.0 mi North 16.1 mph 20.7 mph N/A   Overcast
11:35 AM 32.2 °F 21.4 °F 32.0 °F 99% 29.88 in 7.0 mi North 16.1 mph 20.7 mph N/A   Overcast
11:55 AM 32.0 °F 21.2 °F 31.6 °F 99% 29.88 in 10.0 mi North 16.1 mph 23.0 mph N/A   Overcast
12:15 PM 32.0 °F 21.2 °F 31.6 °F 99% 29.89 in 10.0 mi NNW 16.1 mph 21.9 mph N/A   Overcast
12:35 PM 32.2 °F 21.1 °F 31.1 °F 96% 29.90 in 10.0 mi NNW 17.3 mph 20.7 mph N/A   Overcast
12:55 PM 32.0 °F 20.5 °F 29.7 °F 91% 29.91 in 10.0 mi North 18.4 mph 23.0 mph N/A   Overcast
1:15 PM 32.0 °F 20.5 °F 29.3 °F 90% 29.92 in 10.0 mi North 18.4 mph 28.8 mph N/A   Overcast
1:35 PM 32.0 °F 21.6 °F 28.6 °F 87% 29.93 in 10.0 mi NNW 15.0 mph 25.3 mph N/A   Overcast
1:55 PM 32.2 °F 21.8 °F 28.8 °F 87% 29.94 in 10.0 mi North 15.0 mph 24.2 mph N/A   Overcast
2:15 PM 32.0 °F 20.5 °F 27.5 °F 83% 29.94 in 10.0 mi North 18.4 mph 25.3 mph N/A   Overcast
2:35 PM 31.8 °F 21.4 °F 27.3 °F 83% 29.95 in 10.0 mi North 15.0 mph 21.9 mph N/A   Overcast
2:55 PM 31.1 °F 19.3 °F 27.1 °F 85% 29.95 in 10.0 mi North 18.4 mph 23.0 mph N/A   Overcast
3:15 PM 31.1 °F 20.5 °F 27.1 °F 85% 29.95 in 10.0 mi North 15.0 mph 23.0 mph N/A   Overcast
3:35 PM 31.1 °F 19.3 °F 26.6 °F 83% 29.96 in 10.0 mi North 18.4 mph 24.2 mph N/A   Overcast
3:55 PM 31.1 °F 20.9 °F 25.7 °F 80% 29.97 in 10.0 mi North 13.8 mph 23.0 mph N/A   Overcast
4:15 PM 31.1 °F 21.9 °F 25.7 °F 80% 29.98 in 10.0 mi North 11.5 mph - N/A   Overcast
4:35 PM 31.1 °F 23.1 °F 25.9 °F 81% 29.99 in 10.0 mi North 9.2 mph - N/A   Overcast
4:55 PM 31.1 °F 20.5 °F 25.5 °F 80% 30.00 in 10.0 mi North 15.0 mph - N/A   Overcast
5:15 PM 30.7 °F 21.4 °F 24.8 °F 79% 30.00 in 10.0 mi North 11.5 mph - N/A   Overcast
5:35 PM 30.6 °F 19.8 °F 24.3 °F 77% 30.00 in 10.0 mi NNW 15.0 mph 18.4 mph N/A   Overcast
5:55 PM 30.2 °F 19.8 °F 23.7 °F 77% 30.01 in 10.0 mi North 13.8 mph 20.7 mph N/A   Overcast
6:15 PM 30.2 °F 20.2 °F 23.2 °F 75% 30.01 in 10.0 mi North 12.7 mph - N/A   Overcast
6:35 PM 30.0 °F 21.7 °F 23.0 °F 75% 30.02 in 10.0 mi NNW 9.2 mph - N/A   Overcast
6:55 PM 29.8 °F 20.3 °F 23.0 °F 76% 30.03 in 10.0 mi North 11.5 mph - N/A   Overcast
7:15 PM 29.7 °F 21.3 °F 22.3 °F 74% 30.03 in 10.0 mi North 9.2 mph - N/A   Overcast
7:35 PM 29.3 °F 19.1 °F 21.2 °F 72% 30.04 in 10.0 mi North 12.7 mph - N/A   Overcast
7:55 PM 29.3 °F 21.5 °F 21.4 °F 72% 30.04 in 10.0 mi North 8.1 mph - N/A   Overcast
8:15 PM 29.3 °F 24.3 °F 21.7 °F 73% 30.04 in 10.0 mi North 4.6 mph - N/A   Overcast
8:35 PM 28.9 °F 23.9 °F 22.1 °F 76% 30.04 in 10.0 mi North 4.6 mph - N/A   Overcast
8:55 PM 29.7 °F 23.7 °F 22.5 °F 75% 30.05 in 10.0 mi North 5.8 mph - N/A   Overcast
9:15 PM 30.0 °F 22.4 °F 22.3 °F 73% 30.07 in 10.0 mi North 8.1 mph - N/A   Overcast
9:35 PM 29.8 °F 22.2 °F 22.1 °F 73% 30.08 in 10.0 mi North 8.1 mph - N/A   Overcast
9:55 PM 29.7 °F 22.0 °F 21.7 °F 72% 30.08 in 10.0 mi North 8.1 mph - N/A   Overcast
10:15 PM 29.3 °F 23.2 °F 21.0 °F 71% 30.09 in 10.0 mi North 5.8 mph - N/A   Overcast
10:35 PM 29.3 °F 23.2 °F 20.3 °F 69% 30.10 in 10.0 mi North 5.8 mph - N/A   Overcast
10:55 PM 29.3 °F 22.3 °F 20.7 °F 70% 30.10 in 10.0 mi North 6.9 mph - N/A   Overcast
11:15 PM 29.3 °F 23.2 °F 20.3 °F 69% 30.10 in 10.0 mi North 5.8 mph - N/A   Overcast
11:35 PM 29.1 °F 21.3 °F 21.0 °F 72% 30.10 in 10.0 mi North 8.1 mph - N/A   Overcast
11:55 PM 29.3 °F 23.2 °F 21.0 °F 71% 30.10 in 10.0 mi NNW 5.8 mph - N/A   Overcast